User: anonymous   Login
Location: Lake Superior Provincial Park
(47.3335°N, 84.6162°W)
Time: 23:03:55
(UTC-04:00)
Language:

Cosmos 2333 Rocket - Orbit

View from above orbital plane
View from above orbital plane
View from above satellite
View from above satellite

Ground track
Ground track

The orbit data is extracted from the following two-line orbital elements,

1 24298U 96051B   14294.64400315 -.00000072  00000-0 -12526-4 0  5828
2 24298 070.8599 305.6520 0016346 193.3305 305.2821 14.12458483934928
Epoch (UTC): 21 October 2014 15:27:21
Eccentricity: 0.0016346
inclination: 70.8599°
perigee height: 839 km
apogee height: 863 km
right ascension of ascending node: 305.6520°
argument of perigee: 193.3305°
revolutions per day: 14.12458483
mean anomaly at epoch: 305.2821°
orbit number at epoch: 93492

The dashed part of the orbit path shows where the satellite is in the earth's shadow,  

DLR